COSMOS 1275 DEB

Satellite information

Favourite Embed

Satellite Type and Status

DEBRISIN ORBIT

Key statistics

Satellite COSMOS 1275 DEB at a glance.

Uptime

16264

Days in orbit

Revolutions

≈ 13.8

Per day

Orbit

LEO

Low Earth Orbit

Inclination

83.0

Latest

Satellite identification and parameters

Extended collection of information and parameters for COSMOS 1275 DEB.

Object identification

Identified? True

Debris? True

Object name: COSMOS 1275 DEB

International designator: 1981-053TK

Object number (NORAD): 42195

Object ID (CCSDS): 42195

Country: COMMONWEALTH OF INDEPENDENT STATES (CIS)

Current information (Y/N): Y

RCS size: SMALL

Orbital parameters

Period: 104.286 minutes

Inclination: 83.0353 deg

SMA: 7339.113 km

Apoapsis: 1033.332 km

Periapsis: 888.624 km

RAAN: 39.003 deg

Eccentricy: 0.00985868

Argument of periapsis: 327.5759 deg

Mean anomaly: 31.9366 deg

Mean motion: 13.80821141 rev/day

Mean motion (dot): 0.00002831 rev/day2

B* drag term: 0.0025798851 1/REarth

Two-line elements (TLE)

Creation date: Dec. 6, 2025, 6 a.m.

Reference frame: TEME

Reference center: EARTH

Epoch: Dec. 5, 2025, 11:21 a.m. UTC

TLE line 0: 0 COSMOS 1275 DEB

TLE line 1: 1 42195U 81053TK 25339.47358209 .00002831 00000-0 25799-2 0 9996

TLE line 2: 2 42195 83.0353 39.0030 0098587 327.5759 31.9366 13.80821141577584

Live tracking on map

Real-time ground track for satellite COSMOS 1275 DEB.

In-orbit conjunctions

A list of the most updated potential collisions computed for object COSMOS 1275 DEB.

Target Orbit TCA Probability of collision Miss distance Type
OBJECT G LEO 2025-08-07 06:34:31 0.0003188908 384.0 (m) UNKNOWN
SL-3 R/B LEO 2024-09-19 04:07:48 0.001319187 43.0 (m) ROCKET BODY

Associated space launch

Navigation satellite providing location information for the Tsiklon-B navigation system

COSMOS 1275 DEB was lifted into orbit during the mission ‘Kosmos-3M | Parus 27’, on board a Kosmos-3M space rocket.

The launch took place on June 4, 1981, 3:41 p.m. from 132/2.

For more information about the launch, click the button.

Launch to space Kosmos-3M | Parus 27
Kosmos-3M | Parus 27

Agency: N/A

Status: Launch Successful

Launch date: June 4, 1981, 3:41 p.m. UTC

Rocket: Kosmos-3M

Launch pad: 132/2

Location: Plesetsk Cosmodrome, Russian Federation

...

Latest news about this satellite

There are no fresh news available about this satellite. Check back as we update our databases every day.


Newsletter sign-up

Weekly statistics, charts and insights to help you stay on top of the space industry.